Find Starlink 4383

NORAD ID: 53473 Int'l Des: 2022-099 Owner: SPXS Country: US Constellation: starlink operational
LEOCIRCULARRETROGRADESSO

現在のビュー

3D地球を読み込み中...

About Starlink 4383

Starlink 4383 (NORAD 53473) is a starlink constellation satellite (v1.5) launched Aug 12, 2022 by SPXS of US. It operates in LEO, CIRCULAR, RETROGRADE, SSO orbit with a mass of 300.00 kg.

次回通過

Passes for default location (London). Set your location on the main map for personalized predictions.

高度履歴

Loading altitude history...

軌道要素

1 53473U 22099J 26228.34861044 -.00000422 00000-0 -93615-5 0 9993
2 53473 97.5643 353.5074 0001688 89.3053 270.8384 15.36965543220391
Epoch: Aug 16, 2026 • Age: 12 hours

現在のステータス

高度 461.3 km
遠地点 / 近地点 N/A
速度 7.64 km/s
衛星直下点 45.71°N, 81.71°W
打ち上げ日 Aug 12, 2022
運用期間 4 years
タイプ internet

技術仕様

分類 Payload
質量 300.00 kg
乾燥質量 275.00 kg
総質量 300.00 kg
長さ 0.20 m
直径 2.80 m
スパン 9.00 m
形状 Box + pan
製造者 SPXS
バスタイプ Starlink
フェーズステータス In Orbit
所有者/国 SPXS/US

Most Searched